Date String (YYYY-MM-DD hh:mm:ss) UTC,Instrument flags,Ambient pressure (hPa),Sample flow (lpm),Bypass flow (lpm),Sample temperature (°C),Ambient temperature (°C),ASC tube jacket temperature (°C),LED temperature (°C),Box temperature (°C),Sample RH (%),Span deviation,Mass concentration (μg/m³),Mass concentration (μg/m³),Mass concentration (μg/m³)
DateTimeUTC,F1_M11,P_M11,Q1_M11,Q2_M11,T1_M11,T2_M11,T3_M11,T4_M11,T5_M11,U1_M11,ZSPAN_M11,X0_M11,X2_M11,X1_M11
2022-07-20 22:00:00,,0828.2,5.00,0.00,29.2,27.6,00.0,37.9,31.1,24.2,0000.0,0018.97,0006.29,0004.56
2022-07-20 22:01:00,,0828.3,5.00,0.00,29.2,27.9,00.0,37.9,31.2,24.3,0000.0,0018.27,0006.25,0004.57
2022-07-20 22:02:00,,0828.2,5.01,0.00,29.3,28.0,00.0,37.9,31.3,24.4,0000.0,0017.77,0006.14,0004.57
2022-07-20 22:03:00,,0828.2,5.00,0.00,29.3,27.6,00.0,37.9,31.2,24.5,0000.0,0016.25,0006.14,0004.57
2022-07-20 22:04:00,,0828.2,5.01,0.00,29.2,27.1,00.0,37.8,31.1,24.4,0000.0,0015.87,0006.08,0004.51
2022-07-20 22:05:00,,0828.2,5.00,0.00,29.2,27.0,00.0,37.8,31.1,24.6,0000.0,0014.54,0005.96,0004.45
2022-07-20 22:06:00,,0828.2,5.00,0.00,29.2,27.1,00.0,37.8,31.0,24.6,0000.0,0014.23,0005.86,0004.41
2022-07-20 22:07:00,,0828.2,5.01,0.00,29.1,27.3,00.0,37.8,31.0,24.6,0000.0,0014.18,0005.77,0004.37
2022-07-20 22:08:00,,0828.3,5.00,0.00,29.2,27.5,00.0,37.9,31.1,24.5,0000.0,0014.05,0005.70,0004.32
2022-07-20 22:09:00,,0828.2,4.99,0.00,29.2,27.7,00.0,37.9,31.1,24.2,0000.0,0014.76,0005.68,0004.28
2022-07-20 22:10:00,,0828.3,5.00,0.00,29.2,27.9,00.0,37.9,31.2,24.1,0000.0,0015.02,0005.64,0004.24
2022-07-20 22:11:00,,0828.3,5.00,0.00,29.2,27.9,00.0,37.9,31.2,23.9,0000.0,0015.42,0005.63,0004.22
2022-07-20 22:12:00,,0828.3,5.00,0.00,29.2,27.2,00.0,37.8,31.1,24.2,0000.0,0016.67,0005.65,0004.21
2022-07-20 22:13:00,,0828.3,4.99,0.00,29.2,26.9,00.0,37.8,31.1,24.3,0000.0,0017.09,0005.69,0004.20
2022-07-20 22:14:00,,0828.4,5.01,0.00,29.2,26.9,00.0,37.8,31.0,24.9,0000.0,0018.18,0005.71,0004.20
2022-07-20 22:15:00,,0828.5,5.01,0.00,29.1,27.1,00.0,37.8,31.0,25.0,0000.0,0018.13,0005.72,0004.19
2022-07-20 22:16:00,,0828.5,5.00,0.00,29.1,27.3,00.0,37.8,31.0,25.5,0000.0,0017.87,0005.77,0004.21
2022-07-20 22:17:00,,0828.7,5.01,0.00,29.1,27.5,00.0,37.8,31.1,25.3,0000.0,0018.25,0005.78,0004.20
2022-07-20 22:18:00,,0829.0,5.01,0.00,29.2,27.7,00.0,37.9,31.1,25.4,0000.0,0018.17,0005.78,0004.19
2022-07-20 22:19:00,,0828.9,4.99,0.00,29.2,27.9,00.0,37.9,31.2,24.5,0000.0,0018.51,0005.85,0004.20
2022-07-20 22:20:00,,0829.0,5.00,0.00,29.3,28.1,00.0,37.9,31.3,24.2,0000.0,0018.68,0005.83,0004.20
2022-07-20 22:21:00,,0829.0,5.01,0.00,29.3,27.7,00.0,37.9,31.3,24.1,0000.0,0018.38,0005.80,0004.19
2022-07-20 22:22:00,,0828.7,5.00,0.00,29.2,27.1,00.0,37.8,31.1,24.8,0000.0,0018.94,0005.80,0004.19
2022-07-20 22:23:00,,0829.0,5.00,0.00,29.2,27.0,00.0,37.8,31.1,26.1,0000.0,0019.03,0005.93,0004.26
2022-07-20 22:24:00,,0828.6,5.00,0.00,29.2,27.1,00.0,37.8,31.0,26.6,0000.0,0019.92,0006.12,0004.36
2022-07-20 22:25:00,,0828.8,5.00,0.00,29.1,27.3,00.0,37.8,31.0,27.1,0000.0,0019.41,0006.31,0004.46
2022-07-20 22:26:00,,0828.7,5.00,0.00,29.1,27.5,00.0,37.9,31.1,27.5,0000.0,0019.72,0006.51,0004.57
2022-07-20 22:27:00,,0829.0,5.00,0.00,29.2,27.7,00.0,37.9,31.1,27.2,0000.0,0019.83,0006.65,0004.67
2022-07-20 22:28:00,,0829.1,5.00,0.00,29.2,27.9,00.0,37.9,31.2,26.9,0000.0,0019.48,0006.84,0004.78
2022-07-20 22:29:00,,0828.9,5.00,0.00,29.3,28.0,00.0,37.9,31.3,27.1,0000.0,0020.31,0007.05,0004.90
2022-07-20 22:30:00,,0828.9,5.00,0.00,29.3,27.7,00.0,37.9,31.3,27.1,0000.0,0020.79,0007.19,0005.04
2022-07-20 22:31:00,,0828.8,4.99,0.00,29.2,27.0,00.0,37.8,31.1,27.3,0000.0,0020.42,0007.42,0005.17
2022-07-20 22:32:00,,0829.0,5.01,0.00,29.2,26.9,00.0,37.8,31.1,27.2,0000.0,0020.92,0007.61,0005.30
2022-07-20 22:33:00,,0828.8,5.00,0.00,29.2,26.9,00.0,37.8,31.0,27.1,0000.0,0020.39,0007.71,0005.39
2022-07-20 22:34:00,,0829.1,4.99,0.00,29.1,27.1,00.0,37.8,31.0,27.0,0000.0,0020.70,0007.74,0005.43
2022-07-20 22:35:00,,0828.8,5.00,0.00,29.1,27.3,00.0,37.8,31.0,27.1,0000.0,0020.56,0007.78,0005.47
2022-07-20 22:36:00,,0828.9,5.00,0.00,29.1,27.6,00.0,37.9,31.1,27.0,0000.0,0020.77,0007.72,0005.48
2022-07-20 22:37:00,,0828.9,5.00,0.00,29.2,27.8,00.0,37.9,31.1,27.1,0000.0,0020.99,0007.70,0005.49
2022-07-20 22:38:00,,0829.3,5.01,0.00,29.2,28.0,00.0,37.9,31.2,27.4,0000.0,0020.97,0007.69,0005.49
2022-07-20 22:39:00,,0829.4,5.00,0.00,29.2,27.7,00.0,37.8,31.2,27.7,0000.0,0020.30,0007.65,0005.48
2022-07-20 22:40:00,,0829.2,4.99,0.00,29.2,27.0,00.0,37.8,31.1,27.9,0000.0,0019.31,0007.62,0005.47
2022-07-20 22:41:00,,0829.2,5.01,0.00,29.2,26.9,00.0,37.8,31.0,28.0,0000.0,0019.32,0007.58,0005.44
2022-07-20 22:42:00,,0828.9,5.00,0.00,29.1,26.9,00.0,37.8,31.0,28.2,0000.0,0019.79,0007.47,0005.41
2022-07-20 22:43:00,,0829.1,5.00,0.00,29.1,27.1,00.0,37.8,31.0,28.4,0000.0,0019.85,0007.39,0005.40
2022-07-20 22:44:00,,0829.2,5.01,0.00,29.1,27.3,00.0,37.8,31.0,28.1,0000.0,0019.68,0007.39,0005.40
2022-07-20 22:45:00,,0829.3,5.01,0.00,29.1,27.5,00.0,37.8,31.0,27.7,0000.0,0018.36,0007.32,0005.38
2022-07-20 22:46:00,,0829.3,5.00,0.00,29.1,27.7,00.0,37.8,31.1,27.6,0000.0,0017.75,0007.15,0005.33
2022-07-20 22:47:00,,0829.3,5.00,0.00,29.2,27.9,00.0,37.9,31.2,27.9,0000.0,0017.87,0007.11,0005.29
2022-07-20 22:48:00,,0829.2,4.99,0.00,29.2,28.0,00.0,37.9,31.2,28.0,0000.0,0018.19,0007.04,0005.25
2022-07-20 22:49:00,,0829.3,4.99,0.00,29.2,27.4,00.0,37.8,31.2,28.0,0000.0,0018.55,0007.03,0005.22
2022-07-20 22:50:00,,0829.4,5.01,0.00,29.2,26.9,00.0,37.8,31.1,28.1,0000.0,0019.44,0006.99,0005.20
2022-07-20 22:51:00,,0829.3,5.00,0.00,29.2,26.8,00.0,37.7,31.0,28.0,0000.0,0020.34,0007.00,0005.18
2022-07-20 22:52:00,,0829.1,4.98,0.00,29.1,26.9,00.0,37.8,30.9,28.2,0000.0,0020.26,0007.02,0005.16
2022-07-20 22:53:00,,0829.1,5.01,0.00,29.1,27.1,00.0,37.8,30.9,28.3,0000.0,0020.32,0007.00,0005.13
2022-07-20 22:54:00,,0829.2,5.00,0.00,29.1,27.3,00.0,37.8,31.0,28.1,0000.0,0019.63,0006.94,0005.09
2022-07-20 22:55:00,,0829.1,4.99,0.00,29.1,27.5,00.0,37.8,31.1,27.8,0000.0,0019.29,0006.85,0005.05
2022-07-20 22:56:00,,0828.8,5.00,0.00,29.1,27.7,00.0,37.8,31.1,27.7,0000.0,0019.18,0006.85,0005.02
2022-07-20 22:57:00,,0829.1,5.00,0.00,29.2,27.9,00.0,37.9,31.2,27.7,0000.0,0018.90,0006.88,0005.02
2022-07-20 22:58:00,,0829.0,5.01,0.00,29.2,28.1,00.0,37.9,31.3,27.4,0000.0,0018.99,0006.94,0005.01
2022-07-20 22:59:00,,0829.3,4.99,0.00,29.2,27.6,00.0,37.8,31.2,26.8,0000.0,0018.40,0007.00,0005.01
